リニア彗星

C/2007 U1 ( LINEAR )

English version
Home page
Total 6,336 html files since Dec. 4, 1995
Updated on April 12, 2008

---------------------------------------------------------------------

・ プロフィール

発見日 2007年10月19日
発見光度 19.4等
発見者 Lincoln Laboratory Near-Earth Asteroid Research project

・ 写真集

・ 軌道要素

The following orbital elements are taken from MPC 61704:

Epoch 2008 Aug. 2.0 TT = JDT 2454680.5
T 2008 Aug. 7.0204 TT                                   MPC
q   3.329274             (2000.0)            P               Q
z  -0.000544       Peri.    0.9213      +0.6535720      +0.6991993
 +/-0.000043       Node    50.0406      +0.6919691      -0.7071127
e   1.001812       Incl.  157.7878      +0.3066306      +0.1054138
From 194 observations 2007 Oct. 19-2008 Jan. 19, mean residual 0".5.

・ 星図

・ 光度変化

        m1 = 8.5 + 5 logΔ + 10.0 log r

---------------------------------------------------------------------

軌道要素はMPCのEphemerides and Orbital Elementsに掲載されたものです。
星図はステラナビゲータ Ver.8 (アストロアーツ) で作成したものです。
光度グラフはComet for Windowsで作成したものです。

---------------------------------------------------------------------

Copyright(C) 1995-2008 Seiichi Yoshida (comet@aerith.net). All rights reserved.